Location: San Gennaro Vesuviano
(40.8833°N, 14.5333°E)
Time: 10:33:01
(UTC+00:00)

MetOp-A - Pass Details

Date: 22 April 2021
Orbit: 819 x 821 km, 98.5° (Epoch: 10 May)

Event Time Altitude Azimuth Distance (km) Brightness Sun altitude
Rises 18:48:33 0° 170° (S) 3,337 6.9 -11.2°
Reaches altitude 10° 18:50:54 10° 173° (S) 2,409 6.2 -11.6°
Maximum altitude 18:56:13 73° 258° (WSW) 861 4.4 -12.5°
Drops below altitude 10° 19:01:35 10° 343° (NNW) 2,424 7.3 -13.4°
Sets 19:03:57 0° 345° (NNW) 3,360 8.1 -13.8°
